Hourly Weather Dorofeevo

Today, 11 August, Tuesday

Time Temperature Precipitation Wind Pressure Humidity
00:00 +17°C° 0 mm 2 mps 742 mmHg 73%
01:00 +17°C° 0 mm 2 mps 742 mmHg 75%
02:00 +16°C° 0 mm 2 mps 742 mmHg 78%
03:00 +16°C° 0 mm 2 mps 742 mmHg 80%
04:00 +16°C° 0 mm 2 mps 742 mmHg 83%
05:00 +16°C° 0 mm 2 mps 742 mmHg 86%
06:00 +16°C° 0 mm 2 mps 742 mmHg 89%
07:00 +17°C° 0.1 mm 2 mps 742 mmHg 86%
08:00 +19°C° 0.1 mm 3 mps 742 mmHg 83%
09:00 +20°C° 0.1 mm 3 mps 742 mmHg 80%
10:00 +21°C° 1.3 mm 3 mps 741 mmHg 77%
11:00 +21°C° 1.3 mm 4 mps 741 mmHg 73%
12:00 +22°C° 1.3 mm 4 mps 741 mmHg 70%
13:00 +22°C° 0.4 mm 4 mps 741 mmHg 67%
14:00 +23°C° 0.4 mm 4 mps 741 mmHg 63%
15:00 +23°C° 0.4 mm 4 mps 741 mmHg 60%
16:00 +22°C° 0 mm 4 mps 741 mmHg 62%
17:00 +21°C° 0 mm 4 mps 741 mmHg 65%
18:00 +20°C° 0 mm 4 mps 741 mmHg 67%
19:00 +18°C° 0 mm 4 mps 741 mmHg 71%
20:00 +16°C° 0 mm 3 mps 741 mmHg 76%
21:00 +14°C° 0 mm 3 mps 741 mmHg 80%
22:00 +13°C° 0 mm 3 mps 741 mmHg 83%
23:00 +12°C° 0 mm 3 mps 741 mmHg 86%

Tomorrow, 12 August, Wednesday

Time Temperature Precipitation Wind Pressure Humidity
00:00 +12°C° 0 mm 3 mps 742 mmHg 88%
01:00 +11°C° 0 mm 3 mps 741 mmHg 90%
02:00 +11°C° 0 mm 3 mps 741 mmHg 93%
03:00 +10°C° 0 mm 3 mps 741 mmHg 95%
04:00 +10°C° 0 mm 3 mps 741 mmHg 93%
05:00 +11°C° 0 mm 3 mps 741 mmHg 91%
06:00 +11°C° 0 mm 3 mps 741 mmHg 90%
07:00 +12°C° 0 mm 3 mps 741 mmHg 88%
08:00 +13°C° 0 mm 4 mps 741 mmHg 85%
09:00 +13°C° 0 mm 4 mps 741 mmHg 83%
10:00 +14°C° 0 mm 4 mps 741 mmHg 81%
11:00 +14°C° 0 mm 4 mps 741 mmHg 79%
12:00 +15°C° 0 mm 5 mps 741 mmHg 77%
13:00 +16°C° 0.2 mm 5 mps 741 mmHg 75%
14:00 +16°C° 0.2 mm 5 mps 741 mmHg 73%
15:00 +17°C° 0.2 mm 5 mps 741 mmHg 70%
16:00 +17°C° 0.5 mm 5 mps 741 mmHg 74%
17:00 +16°C° 0.5 mm 6 mps 741 mmHg 77%
18:00 +16°C° 0.5 mm 6 mps 741 mmHg 81%
19:00 +15°C° 0 mm 6 mps 741 mmHg 84%
20:00 +13°C° 0 mm 5 mps 741 mmHg 88%
21:00 +12°C° 0 mm 5 mps 741 mmHg 92%
22:00 +12°C° 0 mm 5 mps 741 mmHg 91%
23:00 +13°C° 0 mm 5 mps 741 mmHg 90%

Day after tomorrow, 13 August, Thursday

Time Temperature Precipitation Wind Pressure Humidity
00:00 +13°C° 0 mm 5 mps 741 mmHg 89%
01:00 +12°C° 0 mm 5 mps 741 mmHg 89%
02:00 +12°C° 0 mm 5 mps 741 mmHg 90%
03:00 +12°C° 0 mm 5 mps 741 mmHg 90%
04:00 +12°C° 0 mm 5 mps 742 mmHg 91%
05:00 +10°C° 0 mm 5 mps 742 mmHg 92%
06:00 +11°C° 0 mm 4 mps 742 mmHg 93%
07:00 +12°C° 0 mm 5 mps 742 mmHg 90%
08:00 +13°C° 0 mm 5 mps 742 mmHg 87%
09:00 +14°C° 0 mm 5 mps 742 mmHg 83%
10:00 +14°C° 0.3 mm 5 mps 742 mmHg 79%
11:00 +15°C° 0.3 mm 5 mps 742 mmHg 75%
12:00 +16°C° 0.3 mm 6 mps 742 mmHg 71%
13:00 +17°C° 0.2 mm 6 mps 742 mmHg 67%
14:00 +17°C° 0.2 mm 6 mps 742 mmHg 63%
15:00 +19°C° 0.2 mm 6 mps 742 mmHg 59%
16:00 +17°C° 0.1 mm 5 mps 742 mmHg 61%
17:00 +16°C° 0.1 mm 5 mps 742 mmHg 64%
18:00 +15°C° 0.1 mm 5 mps 742 mmHg 66%
19:00 +14°C° 0 mm 4 mps 742 mmHg 70%
20:00 +12°C° 0 mm 4 mps 742 mmHg 73%
21:00 +11°C° 0 mm 3 mps 743 mmHg 77%
22:00 +11°C° 0 mm 3 mps 743 mmHg 77%
23:00 +11°C° 0 mm 3 mps 743 mmHg 78%

14 August, Friday

Time Temperature Precipitation Wind Pressure Humidity
00:00 +11°C° 0 mm 3 mps 743 mmHg 79%
01:00 +11°C° 0.1 mm 3 mps 743 mmHg 80%
02:00 +11°C° 0.1 mm 3 mps 743 mmHg 81%
03:00 +10°C° 0.1 mm 3 mps 743 mmHg 82%
04:00 +10°C° 0 mm 3 mps 743 mmHg 83%
05:00 +9°C° 0 mm 3 mps 743 mmHg 85%
06:00 +9°C° 0 mm 3 mps 743 mmHg 86%
07:00 +10°C° 0 mm 4 mps 743 mmHg 82%
08:00 +12°C° 0 mm 4 mps 743 mmHg 77%
09:00 +13°C° 0 mm 4 mps 743 mmHg 72%
10:00 +14°C° 0.2 mm 4 mps 743 mmHg 69%
11:00 +15°C° 0.2 mm 4 mps 743 mmHg 65%
12:00 +17°C° 0.2 mm 4 mps 743 mmHg 61%
13:00 +17°C° 0.1 mm 4 mps 743 mmHg 61%
14:00 +17°C° 0.1 mm 4 mps 743 mmHg 61%
15:00 +17°C° 0.1 mm 4 mps 743 mmHg 60%
16:00 +17°C° 0.1 mm 3 mps 743 mmHg 64%
17:00 +16°C° 0.1 mm 3 mps 743 mmHg 68%
18:00 +16°C° 0.1 mm 3 mps 743 mmHg 72%
19:00 +14°C° 0 mm 3 mps 744 mmHg 74%
20:00 +13°C° 0 mm 3 mps 744 mmHg 75%
21:00 +14°C° 0 mm 2 mps 744 mmHg 77%
22:00 +13°C° 0 mm 2 mps 744 mmHg 80%
23:00 +11°C° 0 mm 3 mps 744 mmHg 84%

15 August, Saturday

Time Temperature Precipitation Wind Pressure Humidity
00:00 +10°C° 0 mm 3 mps 744 mmHg 87%
01:00 +10°C° 0 mm 3 mps 744 mmHg 88%
02:00 +9°C° 0 mm 2 mps 744 mmHg 90%
03:00 +9°C° 0 mm 2 mps 744 mmHg 91%
04:00 +9°C° 0 mm 2 mps 744 mmHg 91%
05:00 +9°C° 0 mm 2 mps 744 mmHg 92%
06:00 +9°C° 0 mm 2 mps 744 mmHg 92%
07:00 +12°C° 0 mm 2 mps 744 mmHg 86%
08:00 +13°C° 0 mm 3 mps 744 mmHg 80%
09:00 +16°C° 0 mm 3 mps 744 mmHg 74%
10:00 +16°C° 0.4 mm 3 mps 744 mmHg 72%
11:00 +17°C° 0.4 mm 4 mps 744 mmHg 69%
12:00 +18°C° 0.4 mm 4 mps 743 mmHg 67%
13:00 +19°C° 0.4 mm 4 mps 743 mmHg 65%
14:00 +19°C° 0.4 mm 4 mps 743 mmHg 64%
15:00 +20°C° 0.4 mm 3 mps 743 mmHg 63%
16:00 +19°C° 0.4 mm 3 mps 743 mmHg 69%
17:00 +18°C° 0.4 mm 3 mps 742 mmHg 75%
18:00 +17°C° 0.4 mm 4 mps 742 mmHg 81%
19:00 +16°C° 0.1 mm 3 mps 742 mmHg 84%
20:00 +15°C° 0.1 mm 2 mps 742 mmHg 88%
21:00 +14°C° 0.1 mm 2 mps 742 mmHg 91%
22:00 +14°C° 0 mm 1 mps 742 mmHg 91%
23:00 +14°C° 0 mm 1 mps 742 mmHg 91%

16 August, Sunday

Time Temperature Precipitation Wind Pressure Humidity
00:00 +13°C° 0 mm 1 mps 742 mmHg 91%
01:00 +13°C° 0 mm 1 mps 742 mmHg 90%
02:00 +12°C° 0 mm 1 mps 742 mmHg 90%
03:00 +12°C° 0 mm 1 mps 742 mmHg 89%
04:00 +12°C° 0 mm 1 mps 742 mmHg 88%
05:00 +10°C° 0 mm 2 mps 742 mmHg 87%
06:00 +10°C° 0 mm 2 mps 742 mmHg 86%
07:00 +12°C° 0 mm 2 mps 743 mmHg 81%
08:00 +13°C° 0 mm 3 mps 743 mmHg 77%
09:00 +14°C° 0 mm 3 mps 743 mmHg 72%
10:00 +16°C° 0 mm 3 mps 743 mmHg 65%
11:00 +17°C° 0 mm 3 mps 743 mmHg 59%
12:00 +19°C° 0 mm 3 mps 743 mmHg 52%
13:00 +19°C° 0 mm 3 mps 743 mmHg 53%
14:00 +19°C° 0 mm 3 mps 743 mmHg 53%
15:00 +20°C° 0 mm 3 mps 743 mmHg 53%
16:00 +19°C° 0 mm 3 mps 743 mmHg 57%
17:00 +19°C° 0 mm 3 mps 743 mmHg 62%
18:00 +19°C° 0 mm 2 mps 743 mmHg 66%
19:00 +17°C° 0 mm 2 mps 743 mmHg 69%
20:00 +16°C° 0 mm 2 mps 744 mmHg 73%
21:00 +14°C° 0 mm 2 mps 744 mmHg 76%
22:00 +14°C° 0 mm 2 mps 744 mmHg 79%
23:00 +13°C° 0 mm 2 mps 744 mmHg 81%
Show more